Time,TemperatureF,DewpointF,PressureIn,WindDirection,WindDirectionDegrees,WindSpeedMPH,WindSpeedGustMPH,Humidity,HourlyPrecipIn,Conditions,Clouds,dailyrainin,SoftwareType,DateUTC
2013-01-18 00:00:00,17.3,-0.4,29.90,WNW,292,3.0,12.0,45,0.00,,,0.00,Weather View 32 v70,2013-01-18 05:00:00,
2013-01-18 00:01:00,17.1,1.2,29.90,WNW,292,3.0,12.0,49,0.00,,,0.00,Weather View 32 v70,2013-01-18 05:01:00,
2013-01-18 00:02:00,17.1,1.2,29.90,West,270,6.0,12.0,49,0.00,,,0.00,Weather View 32 v70,2013-01-18 05:02:00,
2013-01-18 00:07:00,16.9,0.6,29.90,WNW,292,6.0,12.0,48,0.00,,,0.00,Weather View 32 v70,2013-01-18 05:07:00,
2013-01-18 00:12:00,16.8,2.6,29.91,NW,315,6.0,12.0,53,0.00,,,0.00,Weather View 32 v70,2013-01-18 05:12:00,
2013-01-18 00:17:00,16.7,1.7,29.93,West,270,3.0,12.0,51,0.00,,,0.00,Weather View 32 v70,2013-01-18 05:17:00,
2013-01-18 00:22:00,16.5,1.5,29.93,WNW,292,4.0,12.0,51,0.00,,,0.00,Weather View 32 v70,2013-01-18 05:22:00,
2013-01-18 00:27:00,16.3,4.5,29.94,WNW,292,6.0,12.0,59,0.00,,,0.00,Weather View 32 v70,2013-01-18 05:27:00,
2013-01-18 00:32:00,16.1,1.2,29.94,WSW,247,1.0,12.0,51,0.00,,,0.00,Weather View 32 v70,2013-01-18 05:32:00,
2013-01-18 00:37:00,15.9,1.4,29.94,NNW,337,2.0,12.0,52,0.00,,,0.00,Weather View 32 v70,2013-01-18 05:37:00,
2013-01-18 00:42:00,15.7,2.8,29.94,WNW,292,2.0,12.0,56,0.00,,,0.00,Weather View 32 v70,2013-01-18 05:42:00,
2013-01-18 00:47:00,15.6,0.7,29.95,WNW,292,2.0,12.0,51,0.00,,,0.00,Weather View 32 v70,2013-01-18 05:47:00,
2013-01-18 00:52:00,15.5,-0.3,29.94,West,270,1.0,12.0,49,0.00,,,0.00,Weather View 32 v70,2013-01-18 05:52:00,
2013-01-18 00:57:00,15.3,-0.9,29.94,WNW,292,4.0,12.0,48,0.00,,,0.00,Weather View 32 v70,2013-01-18 05:57:00,
2013-01-18 01:02:00,14.9,1.3,29.93,WSW,247,4.0,12.0,54,0.00,,,0.00,Weather View 32 v70,2013-01-18 06:02:00,
2013-01-18 01:07:00,14.9,-0.8,29.93,WNW,292,4.0,12.0,49,0.00,,,0.00,Weather View 32 v70,2013-01-18 06:07:00,
2013-01-18 01:12:00,14.8,-0.5,29.93,WSW,247,2.0,12.0,50,0.00,,,0.00,Weather View 32 v70,2013-01-18 06:12:00,
2013-01-18 01:17:00,14.7,1.1,29.93,WSW,247,0.0,12.0,54,0.00,,,0.00,Weather View 32 v70,2013-01-18 06:17:00,
2013-01-18 01:22:00,14.5,0.1,29.92,WSW,247,0.0,12.0,52,0.00,,,0.00,Weather View 32 v70,2013-01-18 06:22:00,
2013-01-18 01:27:00,14.4,0.8,29.94,NNE,22,0.0,10.0,54,0.00,,,0.00,Weather View 32 v70,2013-01-18 06:27:00,
2013-01-18 01:32:00,14.3,-1.4,29.93,West,270,1.0,10.0,49,0.00,,,0.00,Weather View 32 v70,2013-01-18 06:32:00,
2013-01-18 01:37:00,14.2,-0.6,29.92,WNW,292,2.0,10.0,51,0.00,,,0.00,Weather View 32 v70,2013-01-18 06:37:00,
2013-01-18 01:42:00,13.9,0.7,29.92,WSW,247,0.0,7.0,55,0.00,,,0.00,Weather View 32 v70,2013-01-18 06:42:00,
2013-01-18 01:50:00,13.9,0.7,29.92,WNW,292,2.0,7.0,55,0.00,,,0.00,Weather View 32 v70,2013-01-18 06:50:00,
2013-01-18 01:55:00,13.8,0.6,29.94,WNW,292,4.0,7.0,55,0.00,,,0.00,Weather View 32 v70,2013-01-18 06:55:00,
2013-01-18 02:00:00,13.8,0.2,29.95,WNW,292,1.0,7.0,54,0.00,,,0.00,Weather View 32 v70,2013-01-18 07:00:00,
2013-01-18 02:05:00,13.8,0.6,29.96,West,270,1.0,6.0,55,0.00,,,0.00,Weather View 32 v70,2013-01-18 07:05:00,
2013-01-18 02:10:00,13.8,0.2,29.96,WNW,292,1.0,6.0,54,0.00,,,0.00,Weather View 32 v70,2013-01-18 07:10:00,
2013-01-18 02:15:00,13.7,0.5,29.96,WNW,292,3.0,6.0,55,0.00,,,0.00,Weather View 32 v70,2013-01-18 07:15:00,
2013-01-18 02:20:00,13.6,-0.4,29.96,WNW,292,5.0,6.0,53,0.00,,,0.00,Weather View 32 v70,2013-01-18 07:20:00,
2013-01-18 02:26:00,13.5,-0.4,29.95,WNW,292,3.0,6.0,53,0.00,,,0.00,Weather View 32 v70,2013-01-18 07:26:00,
2013-01-18 02:31:00,13.4,-3.1,29.96,West,270,5.0,8.0,47,0.00,,,0.00,Weather View 32 v70,2013-01-18 07:31:00,
2013-01-18 02:36:00,13.4,-2.6,29.97,West,270,2.0,8.0,48,0.00,,,0.00,Weather View 32 v70,2013-01-18 07:36:00,
2013-01-18 02:41:00,13.3,-2.3,29.98,West,270,3.0,8.0,49,0.00,,,0.00,Weather View 32 v70,2013-01-18 07:41:00,
2013-01-18 02:46:00,13.2,-1.5,29.96,WNW,292,4.0,8.0,51,0.00,,,0.00,Weather View 32 v70,2013-01-18 07:46:00,
2013-01-18 02:51:00,13.1,-0.4,29.98,WNW,292,5.0,8.0,54,0.00,,,0.00,Weather View 32 v70,2013-01-18 07:51:00,
2013-01-18 02:56:00,12.9,-2.7,29.99,WSW,247,4.0,8.0,49,0.00,,,0.00,Weather View 32 v70,2013-01-18 07:56:00,
2013-01-18 03:01:00,12.9,-1.0,29.97,West,270,1.0,8.0,53,0.00,,,0.00,Weather View 32 v70,2013-01-18 08:01:00,
2013-01-18 03:06:00,12.7,-0.8,29.97,WNW,292,3.0,8.0,54,0.00,,,0.00,Weather View 32 v70,2013-01-18 08:06:00,
2013-01-18 03:11:00,12.3,0.7,29.97,WNW,292,3.0,8.0,59,0.00,,,0.00,Weather View 32 v70,2013-01-18 08:11:00,
2013-01-18 03:16:00,11.9,4.6,29.96,WNW,292,2.0,8.0,72,0.00,,,0.00,Weather View 32 v70,2013-01-18 08:16:00,
2013-01-18 03:21:00,11.6,6.1,29.97,WNW,292,2.0,8.0,78,0.00,,,0.00,Weather View 32 v70,2013-01-18 08:21:00,
2013-01-18 03:26:00,11.4,7.0,29.96,WNW,292,2.0,8.0,82,0.00,,,0.00,Weather View 32 v70,2013-01-18 08:26:00,
2013-01-18 03:31:00,10.9,7.8,29.96,WNW,292,3.0,8.0,87,0.00,,,0.00,Weather View 32 v70,2013-01-18 08:31:00,
2013-01-18 03:36:00,10.7,7.9,29.96,NW,315,3.0,7.0,88,0.00,,,0.00,Weather View 32 v70,2013-01-18 08:36:00,
2013-01-18 03:41:00,10.4,7.8,29.96,NW,315,2.0,7.0,89,0.00,,,0.00,Weather View 32 v70,2013-01-18 08:41:00,
2013-01-18 03:46:00,10.1,7.3,29.97,WNW,292,3.0,7.0,88,0.00,,,0.00,Weather View 32 v70,2013-01-18 08:46:00,
2013-01-18 03:51:00,10.2,7.4,29.97,WNW,292,2.0,6.0,88,0.00,,,0.00,Weather View 32 v70,2013-01-18 08:51:00,
2013-01-18 03:56:00,9.9,7.6,29.97,WNW,292,3.0,6.0,90,0.00,,,0.00,Weather View 32 v70,2013-01-18 08:56:00,
2013-01-18 04:01:00,9.8,7.2,29.97,WNW,292,2.0,6.0,89,0.00,,,0.00,Weather View 32 v70,2013-01-18 09:01:00,
2013-01-18 04:06:00,9.6,7.0,29.97,WNW,292,4.0,6.0,89,0.00,,,0.00,Weather View 32 v70,2013-01-18 09:06:00,
2013-01-18 04:11:00,9.4,7.6,29.97,WNW,292,4.0,6.0,92,0.00,,,0.00,Weather View 32 v70,2013-01-18 09:11:00,
2013-01-18 04:16:00,9.4,7.6,29.97,WNW,292,4.0,6.0,92,0.00,,,0.00,Weather View 32 v70,2013-01-18 09:16:00,
2013-01-18 04:21:00,9.3,6.7,29.97,WNW,292,2.0,6.0,89,0.00,,,0.00,Weather View 32 v70,2013-01-18 09:21:00,
2013-01-18 04:26:00,9.1,6.8,29.97,WNW,292,5.0,6.0,90,0.00,,,0.00,Weather View 32 v70,2013-01-18 09:26:00,
2013-01-18 04:31:00,8.9,6.3,29.98,WNW,292,3.0,6.0,89,0.00,,,0.00,Weather View 32 v70,2013-01-18 09:31:00,
2013-01-18 04:36:00,8.8,5.0,29.98,WNW,292,2.0,6.0,84,0.00,,,0.00,Weather View 32 v70,2013-01-18 09:36:00,
2013-01-18 04:41:00,8.5,6.7,29.98,WNW,292,4.0,6.0,92,0.00,,,0.00,Weather View 32 v70,2013-01-18 09:41:00,
2013-01-18 04:46:00,8.5,6.7,29.98,WNW,292,2.0,6.0,92,0.00,,,0.00,Weather View 32 v70,2013-01-18 09:46:00,
2013-01-18 04:51:00,8.2,6.4,29.98,WSW,247,1.0,6.0,92,0.00,,,0.00,Weather View 32 v70,2013-01-18 09:51:00,
2013-01-18 04:57:00,7.9,6.1,29.99,West,270,2.0,6.0,92,0.00,,,0.00,Weather View 32 v70,2013-01-18 09:57:00,
2013-01-18 05:02:00,7.9,6.1,29.99,West,270,2.0,6.0,92,0.00,,,0.00,Weather View 32 v70,2013-01-18 10:02:00,
2013-01-18 05:07:00,7.8,6.0,29.99,WNW,292,1.0,6.0,92,0.00,,,0.00,Weather View 32 v70,2013-01-18 10:07:00,
2013-01-18 05:12:00,7.6,5.0,29.99,WSW,247,0.0,6.0,89,0.00,,,0.00,Weather View 32 v70,2013-01-18 10:12:00,
2013-01-18 05:17:00,7.1,5.3,29.99,SW,225,2.0,6.0,92,0.00,,,0.00,Weather View 32 v70,2013-01-18 10:17:00,
2013-01-18 05:22:00,6.6,4.8,30.00,SSW,202,2.0,6.0,92,0.00,,,0.00,Weather View 32 v70,2013-01-18 10:22:00,
2013-01-18 05:27:00,6.4,4.6,30.00,South,180,2.0,6.0,92,0.00,,,0.00,Weather View 32 v70,2013-01-18 10:27:00,
2013-01-18 05:32:00,6.2,4.4,29.99,South,180,0.0,5.0,92,0.00,,,0.00,Weather View 32 v70,2013-01-18 10:32:00,
2013-01-18 05:37:00,5.8,4.0,29.99,SSW,202,0.0,5.0,92,0.00,,,0.00,Weather View 32 v70,2013-01-18 10:37:00,
2013-01-18 05:42:00,5.5,3.7,29.99,SSW,202,0.0,5.0,92,0.00,,,0.00,Weather View 32 v70,2013-01-18 10:42:00,
2013-01-18 05:47:00,5.4,3.6,29.99,SSW,202,1.0,4.0,92,0.00,,,0.00,Weather View 32 v70,2013-01-18 10:47:00,
2013-01-18 05:52:00,5.6,3.8,30.00,WNW,292,2.0,4.0,92,0.00,,,0.00,Weather View 32 v70,2013-01-18 10:52:00,
2013-01-18 05:57:00,5.6,3.8,30.00,WSW,247,2.0,4.0,92,0.00,,,0.00,Weather View 32 v70,2013-01-18 10:57:00,
2013-01-18 06:02:00,5.2,3.4,30.01,SSW,202,2.0,4.0,92,0.00,,,0.00,Weather View 32 v70,2013-01-18 11:02:00,
2013-01-18 06:07:00,5.2,3.4,30.02,WSW,247,0.0,4.0,92,0.00,,,0.00,Weather View 32 v70,2013-01-18 11:07:00,
2013-01-18 06:12:00,4.9,3.1,30.02,SSW,202,2.0,4.0,92,0.00,,,0.00,Weather View 32 v70,2013-01-18 11:12:00,
2013-01-18 06:17:00,4.9,3.1,30.03,West,270,2.0,5.0,92,0.00,,,0.00,Weather View 32 v70,2013-01-18 11:17:00,
2013-01-18 06:22:00,5.2,3.4,30.04,WNW,292,2.0,6.0,92,0.00,,,0.00,Weather View 32 v70,2013-01-18 11:22:00,
2013-01-18 06:27:00,5.5,3.7,30.04,SW,225,2.0,6.0,92,0.00,,,0.00,Weather View 32 v70,2013-01-18 11:27:00,
2013-01-18 06:32:00,5.2,3.4,30.03,WNW,292,1.0,6.0,92,0.00,,,0.00,Weather View 32 v70,2013-01-18 11:32:00,
2013-01-18 06:37:00,4.9,3.1,30.04,SSW,202,2.0,6.0,92,0.00,,,0.00,Weather View 32 v70,2013-01-18 11:37:00,
2013-01-18 06:42:00,4.9,3.1,30.05,West,270,1.0,6.0,92,0.00,,,0.00,Weather View 32 v70,2013-01-18 11:42:00,
2013-01-18 06:47:00,4.8,3.0,30.06,WSW,247,0.0,6.0,92,0.00,,,0.00,Weather View 32 v70,2013-01-18 11:47:00,
2013-01-18 06:52:00,4.5,2.7,30.06,WSW,247,0.0,6.0,92,0.00,,,0.00,Weather View 32 v70,2013-01-18 11:52:00,
2013-01-18 06:57:00,3.9,1.9,30.06,SSW,202,1.0,6.0,91,0.00,,,0.00,Weather View 32 v70,2013-01-18 11:57:00,
2013-01-18 07:02:00,3.8,1.8,30.06,WNW,292,2.0,6.0,91,0.00,,,0.00,Weather View 32 v70,2013-01-18 12:02:00,
2013-01-18 07:07:00,3.7,1.7,30.06,SSW,202,1.0,6.0,91,0.00,,,0.00,Weather View 32 v70,2013-01-18 12:07:00,
2013-01-18 07:12:00,3.5,1.5,30.07,SW,225,2.0,6.0,91,0.00,,,0.00,Weather View 32 v70,2013-01-18 12:12:00,
2013-01-18 07:17:00,3.5,1.5,30.07,SSW,202,1.0,6.0,91,0.00,,,0.00,Weather View 32 v70,2013-01-18 12:17:00,
2013-01-18 07:22:00,3.4,1.4,30.07,SSE,157,2.0,4.0,91,0.00,,,0.00,Weather View 32 v70,2013-01-18 12:22:00,
2013-01-18 07:27:00,3.3,1.3,30.07,WNW,292,2.0,4.0,91,0.00,,,0.00,Weather View 32 v70,2013-01-18 12:27:00,
2013-01-18 07:32:00,3.1,1.1,30.08,SSW,202,2.0,4.0,91,0.00,,,0.00,Weather View 32 v70,2013-01-18 12:32:00,
2013-01-18 07:38:00,2.9,0.9,30.08,SSW,202,0.0,4.0,91,0.00,,,0.00,Weather View 32 v70,2013-01-18 12:38:00,
2013-01-18 07:43:00,2.9,0.9,30.08,West,270,2.0,4.0,91,0.00,,,0.00,Weather View 32 v70,2013-01-18 12:43:00,
2013-01-18 07:48:00,3.2,1.2,30.09,SSW,202,0.0,4.0,91,0.00,,,0.00,Weather View 32 v70,2013-01-18 12:48:00,
2013-01-18 07:53:00,3.4,1.4,30.09,West,270,1.0,4.0,91,0.00,,,0.00,Weather View 32 v70,2013-01-18 12:53:00,
2013-01-18 07:58:00,3.6,1.6,30.09,WSW,247,2.0,6.0,91,0.00,,,0.00,Weather View 32 v70,2013-01-18 12:58:00,
2013-01-18 08:03:00,3.6,1.6,30.10,South,180,2.0,8.0,91,0.00,,,0.00,Weather View 32 v70,2013-01-18 13:03:00,
2013-01-18 08:08:00,3.9,1.9,30.10,SSW,202,0.0,8.0,91,0.00,,,0.00,Weather View 32 v70,2013-01-18 13:08:00,
2013-01-18 08:13:00,4.3,2.5,30.10,West,270,0.0,8.0,92,0.00,,,0.00,Weather View 32 v70,2013-01-18 13:13:00,
2013-01-18 08:18:00,4.5,2.7,30.10,WNW,292,4.0,8.0,92,0.00,,,0.00,Weather View 32 v70,2013-01-18 13:18:00,
2013-01-18 08:23:00,4.8,3.0,30.10,NW,315,0.0,10.0,92,0.00,,,0.00,Weather View 32 v70,2013-01-18 13:23:00,
2013-01-18 08:28:00,4.9,2.1,30.11,WNW,292,4.0,11.0,88,0.00,,,0.00,Weather View 32 v70,2013-01-18 13:28:00,
2013-01-18 08:33:00,4.9,2.9,30.11,North,360,1.0,11.0,91,0.00,,,0.00,Weather View 32 v70,2013-01-18 13:33:00,
2013-01-18 08:38:00,5.1,2.8,30.12,WNW,292,1.0,11.0,90,0.00,,,0.00,Weather View 32 v70,2013-01-18 13:38:00,
2013-01-18 08:43:00,5.5,1.2,30.12,WNW,292,4.0,11.0,82,0.00,,,0.00,Weather View 32 v70,2013-01-18 13:43:00,
2013-01-18 08:48:00,5.6,-2.4,30.11,West,270,2.0,11.0,69,0.00,,,0.00,Weather View 32 v70,2013-01-18 13:48:00,
2013-01-18 08:53:00,5.7,-0.8,30.11,WSW,247,1.0,11.0,74,0.00,,,0.00,Weather View 32 v70,2013-01-18 13:53:00,
2013-01-18 08:58:00,5.8,-0.1,30.12,WSW,247,4.0,11.0,76,0.00,,,0.00,Weather View 32 v70,2013-01-18 13:58:00,
2013-01-18 09:03:00,6.1,-1.9,30.12,ENE,67,2.0,11.0,69,0.00,,,0.00,Weather View 32 v70,2013-01-18 14:03:00,
2013-01-18 09:08:00,6.3,-2.6,30.13,WSW,247,2.0,11.0,66,0.00,,,0.00,Weather View 32 v70,2013-01-18 14:08:00,
2013-01-18 09:13:00,6.6,-2.3,30.13,WSW,247,5.0,11.0,66,0.00,,,0.00,Weather View 32 v70,2013-01-18 14:13:00,
2013-01-18 09:18:00,7.2,-3.1,30.13,West,270,5.0,11.0,62,0.00,,,0.00,Weather View 32 v70,2013-01-18 14:18:00,
2013-01-18 09:23:00,7.7,-4.0,30.14,WSW,247,8.0,11.0,58,0.00,,,0.00,Weather View 32 v70,2013-01-18 14:23:00,
2013-01-18 09:28:00,7.6,-4.4,30.15,WSW,247,5.0,14.0,57,0.00,,,0.00,Weather View 32 v70,2013-01-18 14:28:00,
2013-01-18 09:33:00,7.9,-4.5,30.14,WNW,292,4.0,14.0,56,0.00,,,0.00,Weather View 32 v70,2013-01-18 14:33:00,
2013-01-18 09:38:00,7.9,-3.8,30.15,West,270,3.0,14.0,58,0.00,,,0.00,Weather View 32 v70,2013-01-18 14:38:00,
2013-01-18 09:43:00,8.1,-4.3,30.15,WNW,292,2.0,14.0,56,0.00,,,0.00,Weather View 32 v70,2013-01-18 14:43:00,
2013-01-18 09:48:00,8.2,-3.5,30.15,WNW,292,4.0,14.0,58,0.00,,,0.00,Weather View 32 v70,2013-01-18 14:48:00,
2013-01-18 09:53:00,8.3,-4.5,30.15,NE,45,2.0,14.0,55,0.00,,,0.00,Weather View 32 v70,2013-01-18 14:53:00,
2013-01-18 09:58:00,8.5,-5.1,30.15,WNW,292,3.0,14.0,53,0.00,,,0.00,Weather View 32 v70,2013-01-18 14:58:00,
2013-01-18 10:03:00,8.6,-3.9,30.15,WNW,292,2.0,14.0,56,0.00,,,0.00,Weather View 32 v70,2013-01-18 15:03:00,
2013-01-18 10:08:00,8.7,-5.3,30.15,WNW,292,5.0,14.0,52,0.00,,,0.00,Weather View 32 v70,2013-01-18 15:08:00,
2013-01-18 10:13:00,8.9,-5.9,30.16,WNW,292,3.0,14.0,50,0.00,,,0.00,Weather View 32 v70,2013-01-18 15:13:00,
2013-01-18 10:18:00,9.3,-6.0,30.16,West,270,4.0,14.0,49,0.00,,,0.00,Weather View 32 v70,2013-01-18 15:18:00,
2013-01-18 10:23:00,9.2,-6.1,30.16,WNW,292,4.0,14.0,49,0.00,,,0.00,Weather View 32 v70,2013-01-18 15:23:00,
2013-01-18 10:29:00,9.2,-5.7,30.16,WSW,247,2.0,13.0,50,0.00,,,0.00,Weather View 32 v70,2013-01-18 15:29:00,
2013-01-18 10:34:00,9.5,-4.2,30.17,SW,225,0.0,13.0,53,0.00,,,0.00,Weather View 32 v70,2013-01-18 15:34:00,
2013-01-18 10:39:00,9.9,-4.6,30.17,West,270,2.0,13.0,51,0.00,,,0.00,Weather View 32 v70,2013-01-18 15:39:00,
2013-01-18 10:44:00,10.2,-3.9,30.17,SSE,157,1.0,13.0,52,0.00,,,0.00,Weather View 32 v70,2013-01-18 15:44:00,
2013-01-18 10:49:00,10.3,-5.1,30.16,WSW,247,2.0,13.0,49,0.00,,,0.00,Weather View 32 v70,2013-01-18 15:49:00,
2013-01-18 10:54:00,10.6,-3.6,30.16,North,360,2.0,13.0,52,0.00,,,0.00,Weather View 32 v70,2013-01-18 15:54:00,
2013-01-18 10:59:00,10.9,-4.1,30.15,South,180,1.0,13.0,50,0.00,,,0.00,Weather View 32 v70,2013-01-18 15:59:00,
2013-01-18 11:04:00,10.9,-3.7,30.15,WNW,292,1.0,13.0,51,0.00,,,0.00,Weather View 32 v70,2013-01-18 16:04:00,
2013-01-18 11:09:00,10.7,-4.3,30.15,WSW,247,8.0,12.0,50,0.00,,,0.00,Weather View 32 v70,2013-01-18 16:09:00,
2013-01-18 11:14:00,10.8,-3.4,30.14,WSW,247,3.0,12.0,52,0.00,,,0.00,Weather View 32 v70,2013-01-18 16:14:00,
2013-01-18 11:19:00,10.9,-3.3,30.14,WSW,247,2.0,12.0,52,0.00,,,0.00,Weather View 32 v70,2013-01-18 16:19:00,
2013-01-18 11:24:00,10.9,-2.9,30.15,WNW,292,11.0,13.0,53,0.00,,,0.00,Weather View 32 v70,2013-01-18 16:24:00,
2013-01-18 11:29:00,11.2,-1.8,30.14,WNW,292,5.0,14.0,55,0.00,,,0.00,Weather View 32 v70,2013-01-18 16:29:00,
2013-01-18 11:34:00,11.5,-2.3,30.14,WNW,292,3.0,14.0,53,0.00,,,0.00,Weather View 32 v70,2013-01-18 16:34:00,
2013-01-18 11:39:00,11.7,-1.3,30.14,South,180,1.0,14.0,55,0.00,,,0.00,Weather View 32 v70,2013-01-18 16:39:00,
2013-01-18 11:44:00,12.1,-3.0,30.14,ENE,67,1.0,14.0,50,0.00,,,0.00,Weather View 32 v70,2013-01-18 16:44:00,
2013-01-18 11:49:00,12.5,-1.8,30.14,SSE,157,1.0,14.0,52,0.00,,,0.00,Weather View 32 v70,2013-01-18 16:49:00,
2013-01-18 11:54:00,12.6,-1.7,30.14,SSW,202,4.0,14.0,52,0.00,,,0.00,Weather View 32 v70,2013-01-18 16:54:00,
2013-01-18 11:59:00,12.9,-1.4,30.13,WSW,247,2.0,14.0,52,0.00,,,0.00,Weather View 32 v70,2013-01-18 16:59:00,
2013-01-18 12:04:00,12.9,-2.2,30.14,NW,315,5.0,14.0,50,0.00,,,0.00,Weather View 32 v70,2013-01-18 17:04:00,
2013-01-18 12:09:00,12.9,-1.0,30.14,WNW,292,5.0,14.0,53,0.00,,,0.00,Weather View 32 v70,2013-01-18 17:09:00,
2013-01-18 12:14:00,13.2,-1.1,30.14,West,270,6.0,14.0,52,0.00,,,0.00,Weather View 32 v70,2013-01-18 17:14:00,
2013-01-18 12:19:00,13.2,-1.5,30.14,NNW,337,0.0,14.0,51,0.00,,,0.00,Weather View 32 v70,2013-01-18 17:19:00,
2013-01-18 12:24:00,13.3,-1.4,30.14,WSW,247,4.0,14.0,51,0.00,,,0.00,Weather View 32 v70,2013-01-18 17:24:00,
2013-01-18 12:29:00,13.1,-0.8,30.14,NW,315,2.0,14.0,53,0.00,,,0.00,Weather View 32 v70,2013-01-18 17:29:00,
2013-01-18 12:34:00,13.1,-0.8,30.14,NNE,22,4.0,14.0,53,0.00,,,0.00,Weather View 32 v70,2013-01-18 17:34:00,
2013-01-18 12:39:00,13.1,-1.2,30.14,WNW,292,2.0,14.0,52,0.00,,,0.00,Weather View 32 v70,2013-01-18 17:39:00,
2013-01-18 12:44:00,13.1,-1.6,30.14,West,270,4.0,14.0,51,0.00,,,0.00,Weather View 32 v70,2013-01-18 17:44:00,
2013-01-18 12:49:00,13.1,-0.8,30.14,NNW,337,3.0,12.0,53,0.00,,,0.00,Weather View 32 v70,2013-01-18 17:49:00,
2013-01-18 12:54:00,13.3,-1.4,30.14,SSE,157,5.0,12.0,51,0.00,,,0.00,Weather View 32 v70,2013-01-18 17:54:00,
2013-01-18 13:00:00,13.5,-0.9,30.14,SSE,157,3.0,17.0,52,0.00,,,0.00,Weather View 32 v70,2013-01-18 18:00:00,
2013-01-18 13:05:00,13.2,-1.1,30.14,SSW,202,2.0,17.0,52,0.00,,,0.00,Weather View 32 v70,2013-01-18 18:05:00,
2013-01-18 13:10:00,13.1,-2.1,30.14,WSW,247,4.0,17.0,50,0.00,,,0.00,Weather View 32 v70,2013-01-18 18:10:00,
2013-01-18 13:15:00,12.9,-1.0,30.15,NNW,337,1.0,17.0,53,0.00,,,0.00,Weather View 32 v70,2013-01-18 18:15:00,
2013-01-18 13:20:00,12.9,-1.4,30.15,WNW,292,7.0,17.0,52,0.00,,,0.00,Weather View 32 v70,2013-01-18 18:20:00,
2013-01-18 13:25:00,12.9,-1.4,30.15,NW,315,4.0,17.0,52,0.00,,,0.00,Weather View 32 v70,2013-01-18 18:25:00,
2013-01-18 13:30:00,12.9,-1.4,30.15,WNW,292,4.0,17.0,52,0.00,,,0.00,Weather View 32 v70,2013-01-18 18:30:00,
2013-01-18 13:35:00,12.9,-1.0,30.15,WSW,247,0.0,17.0,53,0.00,,,0.00,Weather View 32 v70,2013-01-18 18:35:00,
2013-01-18 13:40:00,13.1,-1.6,30.16,WSW,247,5.0,19.0,51,0.00,,,0.00,Weather View 32 v70,2013-01-18 18:40:00,
2013-01-18 13:45:00,13.1,-1.2,30.15,WNW,292,6.0,19.0,52,0.00,,,0.00,Weather View 32 v70,2013-01-18 18:45:00,
2013-01-18 13:50:00,13.2,-1.5,30.15,South,180,1.0,19.0,51,0.00,,,0.00,Weather View 32 v70,2013-01-18 18:50:00,
2013-01-18 13:55:00,13.3,-0.6,30.15,WNW,292,2.0,19.0,53,0.00,,,0.00,Weather View 32 v70,2013-01-18 18:55:00,
2013-01-18 14:00:00,13.2,-0.3,30.16,NW,315,1.0,19.0,54,0.00,,,0.00,Weather View 32 v70,2013-01-18 19:00:00,
2013-01-18 14:05:00,13.5,0.7,30.16,NNE,22,2.0,19.0,56,0.00,,,0.00,Weather View 32 v70,2013-01-18 19:05:00,
2013-01-18 14:10:00,13.4,0.2,30.16,NNE,22,2.0,19.0,55,0.00,,,0.00,Weather View 32 v70,2013-01-18 19:10:00,
2013-01-18 14:15:00,13.2,-0.3,30.16,WSW,247,4.0,19.0,54,0.00,,,0.00,Weather View 32 v70,2013-01-18 19:15:00,
2013-01-18 14:20:00,13.3,-0.6,30.16,SSE,157,2.0,19.0,53,0.00,,,0.00,Weather View 32 v70,2013-01-18 19:20:00,
2013-01-18 14:25:00,13.4,0.2,30.18,SSW,202,2.0,19.0,55,0.00,,,0.00,Weather View 32 v70,2013-01-18 19:25:00,
2013-01-18 14:30:00,13.5,-0.4,30.18,WNW,292,1.0,19.0,53,0.00,,,0.00,Weather View 32 v70,2013-01-18 19:30:00,
2013-01-18 14:35:00,13.5,0.3,30.18,WNW,292,5.0,19.0,55,0.00,,,0.00,Weather View 32 v70,2013-01-18 19:35:00,
2013-01-18 14:40:00,13.6,0.0,30.18,WNW,292,0.0,16.0,54,0.00,,,0.00,Weather View 32 v70,2013-01-18 19:40:00,
2013-01-18 14:45:00,13.8,1.0,30.18,West,270,4.0,14.0,56,0.00,,,0.00,Weather View 32 v70,2013-01-18 19:45:00,
2013-01-18 14:50:00,13.8,-0.6,30.17,NW,315,2.0,14.0,52,0.00,,,0.00,Weather View 32 v70,2013-01-18 19:50:00,
2013-01-18 14:55:00,13.7,-0.7,30.18,NNW,337,4.0,14.0,52,0.00,,,0.00,Weather View 32 v70,2013-01-18 19:55:00,
2013-01-18 15:00:00,13.8,-1.4,30.18,NNW,337,2.0,14.0,50,0.00,,,0.00,Weather View 32 v70,2013-01-18 20:00:00,
2013-01-18 15:05:00,13.7,-0.3,30.17,WSW,247,2.0,12.0,53,0.00,,,0.00,Weather View 32 v70,2013-01-18 20:05:00,
2013-01-18 15:10:00,13.6,-1.2,30.17,WSW,247,1.0,12.0,51,0.00,,,0.00,Weather View 32 v70,2013-01-18 20:10:00,
2013-01-18 15:15:00,13.4,-0.1,30.17,WNW,292,6.0,12.0,54,0.00,,,0.00,Weather View 32 v70,2013-01-18 20:15:00,
2013-01-18 15:20:00,13.7,-1.5,30.17,West,270,6.0,12.0,50,0.00,,,0.00,Weather View 32 v70,2013-01-18 20:20:00,
2013-01-18 15:25:00,13.6,-2.0,30.17,West,270,5.0,12.0,49,0.00,,,0.00,Weather View 32 v70,2013-01-18 20:25:00,
2013-01-18 15:30:00,13.7,-1.1,30.17,NNW,337,1.0,11.0,51,0.00,,,0.00,Weather View 32 v70,2013-01-18 20:30:00,
2013-01-18 15:36:00,13.7,-1.1,30.17,NNW,337,1.0,11.0,51,0.00,,,0.00,Weather View 32 v70,2013-01-18 20:36:00,
2013-01-18 15:41:00,13.7,-1.1,30.17,NNW,337,1.0,11.0,51,0.00,,,0.00,Weather View 32 v70,2013-01-18 20:41:00,
2013-01-18 15:46:00,13.7,-1.1,30.17,NNW,337,1.0,11.0,51,0.00,,,0.00,Weather View 32 v70,2013-01-18 20:46:00,
2013-01-18 15:51:00,13.7,-1.1,30.17,NNW,337,1.0,11.0,51,0.00,,,0.00,Weather View 32 v70,2013-01-18 20:51:00,
2013-01-18 15:56:00,13.7,-1.1,30.17,NNW,337,1.0,11.0,51,0.00,,,0.00,Weather View 32 v70,2013-01-18 20:56:00,
2013-01-18 16:01:00,13.7,-1.1,30.17,NNW,337,1.0,10.0,51,0.00,,,0.00,Weather View 32 v70,2013-01-18 21:01:00,
2013-01-18 16:06:00,13.7,-1.1,30.17,NNW,337,1.0,7.0,51,0.00,,,0.00,Weather View 32 v70,2013-01-18 21:06:00,
2013-01-18 16:11:00,13.7,-1.1,30.17,NNW,337,1.0,7.0,51,0.00,,,0.00,Weather View 32 v70,2013-01-18 21:11:00,
2013-01-18 16:16:00,13.7,-1.1,30.17,NNW,337,1.0,7.0,51,0.00,,,0.00,Weather View 32 v70,2013-01-18 21:16:00,
2013-01-18 16:21:00,13.7,-1.1,30.17,NNW,337,1.0,7.0,51,0.00,,,0.00,Weather View 32 v70,2013-01-18 21:21:00,
2013-01-18 16:26:00,13.7,-1.1,30.17,NNW,337,1.0,7.0,51,0.00,,,0.00,Weather View 32 v70,2013-01-18 21:26:00,
2013-01-18 16:31:00,13.7,-1.1,30.17,NNW,337,1.0,2.0,51,0.00,,,0.00,Weather View 32 v70,2013-01-18 21:31:00,
2013-01-18 16:36:00,13.7,-1.1,30.17,NNW,337,1.0,1.0,51,0.00,,,0.00,Weather View 32 v70,2013-01-18 21:36:00,
2013-01-18 16:41:00,13.7,-1.1,30.17,NNW,337,1.0,1.0,51,0.00,,,0.00,Weather View 32 v70,2013-01-18 21:41:00,
2013-01-18 16:46:00,13.7,-1.1,30.17,NNW,337,1.0,1.0,51,0.00,,,0.00,Weather View 32 v70,2013-01-18 21:46:00,
2013-01-18 16:51:00,13.7,-1.1,30.17,NNW,337,1.0,1.0,51,0.00,,,0.00,Weather View 32 v70,2013-01-18 21:51:00,
2013-01-18 16:56:00,13.7,-1.1,30.17,NNW,337,1.0,1.0,51,0.00,,,0.00,Weather View 32 v70,2013-01-18 21:56:00,
2013-01-18 17:01:00,13.7,-1.1,30.17,NNW,337,1.0,1.0,51,0.00,,,0.00,Weather View 32 v70,2013-01-18 22:01:00,
2013-01-18 17:06:00,13.7,-1.1,30.17,NNW,337,1.0,1.0,51,0.00,,,0.00,Weather View 32 v70,2013-01-18 22:06:00,
2013-01-18 17:11:00,13.7,-1.1,30.17,NNW,337,1.0,1.0,51,0.00,,,0.00,Weather View 32 v70,2013-01-18 22:11:00,
2013-01-18 17:15:00,13.7,-1.1,30.17,NNW,337,1.0,1.0,51,0.00,,,0.00,Weather View 32 v70,2013-01-18 22:15:00,
2013-01-18 17:33:00,10.6,1.8,30.20,SSW,202,2.0,2.0,67,0.00,,,0.00,Weather View 32 v70,2013-01-18 22:33:00,
2013-01-18 17:38:00,10.5,0.7,30.20,South,180,0.0,2.0,64,0.00,,,0.00,Weather View 32 v70,2013-01-18 22:38:00,
2013-01-18 17:43:00,10.3,2.2,30.20,SSE,157,1.0,2.0,69,0.00,,,0.00,Weather View 32 v70,2013-01-18 22:43:00,
2013-01-18 17:48:00,9.9,0.8,30.21,East,90,0.0,2.0,66,0.00,,,0.00,Weather View 32 v70,2013-01-18 22:48:00,
2013-01-18 17:53:00,9.7,2.8,30.21,WSW,247,1.0,2.0,73,0.00,,,0.00,Weather View 32 v70,2013-01-18 22:53:00,
2013-01-18 17:58:00,9.6,4.4,30.21,ESE,112,1.0,2.0,79,0.00,,,0.00,Weather View 32 v70,2013-01-18 22:58:00,
2013-01-18 18:03:00,9.5,3.2,30.21,WNW,292,0.0,2.0,75,0.00,,,0.00,Weather View 32 v70,2013-01-18 23:03:00,
2013-01-18 18:08:00,9.3,6.5,30.21,WNW,292,0.0,2.0,88,0.00,,,0.00,Weather View 32 v70,2013-01-18 23:08:00,
2013-01-18 18:13:00,8.9,6.6,30.21,NE,45,0.0,2.0,90,0.00,,,0.00,Weather View 32 v70,2013-01-18 23:13:00,
2013-01-18 18:18:00,8.8,6.0,30.21,NE,45,0.0,2.0,88,0.00,,,0.00,Weather View 32 v70,2013-01-18 23:18:00,
2013-01-18 18:23:00,8.6,5.3,30.21,North,360,0.0,2.0,86,0.00,,,0.00,Weather View 32 v70,2013-01-18 23:23:00,
2013-01-18 18:28:00,8.6,6.5,30.21,North,360,0.0,2.0,91,0.00,,,0.00,Weather View 32 v70,2013-01-18 23:28:00,
2013-01-18 18:33:00,8.7,6.9,30.21,SSE,157,1.0,2.0,92,0.00,,,0.00,Weather View 32 v70,2013-01-18 23:33:00,
2013-01-18 18:38:00,8.5,6.7,30.21,SSE,157,0.0,2.0,92,0.00,,,0.00,Weather View 32 v70,2013-01-18 23:38:00,
2013-01-18 18:43:00,8.4,6.6,30.21,SSE,157,0.0,2.0,92,0.00,,,0.00,Weather View 32 v70,2013-01-18 23:43:00,
2013-01-18 18:48:00,8.4,6.6,30.21,SSE,157,1.0,2.0,92,0.00,,,0.00,Weather View 32 v70,2013-01-18 23:48:00,
2013-01-18 18:53:00,8.3,4.5,30.21,SSE,157,0.0,2.0,84,0.00,,,0.00,Weather View 32 v70,2013-01-18 23:53:00,
2013-01-18 18:58:00,8.2,6.4,30.21,SSE,157,1.0,2.0,92,0.00,,,0.00,Weather View 32 v70,2013-01-18 23:58:00,
2013-01-18 19:03:00,8.5,6.7,30.21,SE,135,1.0,2.0,92,0.00,,,0.00,Weather View 32 v70,2013-01-19 00:03:00,
2013-01-18 19:08:00,8.4,6.6,30.21,SE,135,1.0,2.0,92,0.00,,,0.00,Weather View 32 v70,2013-01-19 00:08:00,
2013-01-18 19:13:00,8.2,6.4,30.20,SE,135,0.0,2.0,92,0.00,,,0.00,Weather View 32 v70,2013-01-19 00:13:00,
2013-01-18 19:18:00,7.9,6.1,30.20,SSE,157,0.0,2.0,92,0.00,,,0.00,Weather View 32 v70,2013-01-19 00:18:00,
2013-01-18 19:23:00,7.7,5.9,30.21,SSE,157,0.0,2.0,92,0.00,,,0.00,Weather View 32 v70,2013-01-19 00:23:00,
2013-01-18 19:28:00,7.8,6.0,30.21,SSE,157,1.0,2.0,92,0.00,,,0.00,Weather View 32 v70,2013-01-19 00:28:00,
2013-01-18 19:33:00,7.8,6.0,30.20,SSE,157,0.0,2.0,92,0.00,,,0.00,Weather View 32 v70,2013-01-19 00:33:00,
2013-01-18 19:38:00,8.1,6.3,30.20,ENE,67,2.0,2.0,92,0.00,,,0.00,Weather View 32 v70,2013-01-19 00:38:00,
2013-01-18 19:43:00,8.2,5.6,30.20,SSE,157,1.0,2.0,89,0.00,,,0.00,Weather View 32 v70,2013-01-19 00:43:00,
2013-01-18 19:48:00,8.3,6.5,30.20,WNW,292,0.0,2.0,92,0.00,,,0.00,Weather View 32 v70,2013-01-19 00:48:00,
2013-01-18 19:53:00,8.5,6.7,30.21,WNW,292,1.0,2.0,92,0.00,,,0.00,Weather View 32 v70,2013-01-19 00:53:00,
2013-01-18 19:58:00,8.6,6.8,30.21,WNW,292,0.0,2.0,92,0.00,,,0.00,Weather View 32 v70,2013-01-19 00:58:00,
2013-01-18 20:03:00,8.4,6.6,30.21,WNW,292,0.0,2.0,92,0.00,,,0.00,Weather View 32 v70,2013-01-19 01:03:00,
2013-01-18 20:08:00,8.5,6.7,30.21,NE,45,0.0,5.0,92,0.00,,,0.00,Weather View 32 v70,2013-01-19 01:08:00,
2013-01-18 20:13:00,8.5,6.7,30.21,East,90,1.0,5.0,92,0.00,,,0.00,Weather View 32 v70,2013-01-19 01:13:00,
2013-01-18 20:18:00,8.6,6.8,30.21,ESE,112,1.0,5.0,92,0.00,,,0.00,Weather View 32 v70,2013-01-19 01:18:00,
2013-01-18 20:23:00,8.8,7.0,30.21,NNW,337,0.0,5.0,92,0.00,,,0.00,Weather View 32 v70,2013-01-19 01:23:00,
2013-01-18 20:28:00,8.7,6.9,30.21,NE,45,2.0,5.0,92,0.00,,,0.00,Weather View 32 v70,2013-01-19 01:28:00,
2013-01-18 20:33:00,8.9,7.1,30.21,NNW,337,1.0,5.0,92,0.00,,,0.00,Weather View 32 v70,2013-01-19 01:33:00,
2013-01-18 20:38:00,9.1,7.3,30.21,ENE,67,0.0,5.0,92,0.00,,,0.00,Weather View 32 v70,2013-01-19 01:38:00,
2013-01-18 20:43:00,9.2,7.4,30.21,NE,45,2.0,5.0,92,0.00,,,0.00,Weather View 32 v70,2013-01-19 01:43:00,
2013-01-18 20:48:00,9.2,7.4,30.21,NE,45,1.0,5.0,92,0.00,,,0.00,Weather View 32 v70,2013-01-19 01:48:00,
2013-01-18 20:53:00,8.9,7.1,30.20,ESE,112,2.0,5.0,92,0.00,,,0.00,Weather View 32 v70,2013-01-19 01:53:00,
2013-01-18 20:58:00,8.7,6.9,30.21,NNE,22,0.0,5.0,92,0.00,,,0.00,Weather View 32 v70,2013-01-19 01:58:00,
2013-01-18 21:04:00,8.6,6.8,30.21,SSE,157,0.0,5.0,92,0.00,,,0.00,Weather View 32 v70,2013-01-19 02:04:00,
2013-01-18 21:09:00,8.6,6.8,30.20,ESE,112,0.0,4.0,92,0.00,,,0.00,Weather View 32 v70,2013-01-19 02:09:00,
2013-01-18 21:14:00,8.4,6.6,30.21,SE,135,1.0,4.0,92,0.00,,,0.00,Weather View 32 v70,2013-01-19 02:14:00,
2013-01-18 21:19:00,8.5,6.7,30.20,SE,135,0.0,4.0,92,0.00,,,0.00,Weather View 32 v70,2013-01-19 02:19:00,
2013-01-18 21:24:00,8.4,6.6,30.20,SE,135,1.0,3.0,92,0.00,,,0.00,Weather View 32 v70,2013-01-19 02:24:00,
2013-01-18 21:29:00,8.2,6.4,30.20,ESE,112,2.0,3.0,92,0.00,,,0.00,Weather View 32 v70,2013-01-19 02:29:00,
2013-01-18 21:34:00,7.9,6.1,30.20,East,90,2.0,3.0,92,0.00,,,0.00,Weather View 32 v70,2013-01-19 02:34:00,
2013-01-18 21:39:00,7.8,6.0,30.20,ESE,112,0.0,3.0,92,0.00,,,0.00,Weather View 32 v70,2013-01-19 02:39:00,
2013-01-18 21:44:00,8.1,6.3,30.19,NNE,22,2.0,3.0,92,0.00,,,0.00,Weather View 32 v70,2013-01-19 02:44:00,
2013-01-18 21:49:00,8.3,5.5,30.19,SSW,202,0.0,3.0,88,0.00,,,0.00,Weather View 32 v70,2013-01-19 02:49:00,
2013-01-18 21:54:00,8.3,6.5,30.19,ENE,67,0.0,3.0,92,0.00,,,0.00,Weather View 32 v70,2013-01-19 02:54:00,
2013-01-18 21:59:00,8.4,6.6,30.19,NNE,22,2.0,3.0,92,0.00,,,0.00,Weather View 32 v70,2013-01-19 02:59:00,
2013-01-18 22:04:00,8.7,6.9,30.19,NNW,337,2.0,3.0,92,0.00,,,0.00,Weather View 32 v70,2013-01-19 03:04:00,
2013-01-18 22:09:00,8.8,7.0,30.19,ESE,112,1.0,3.0,92,0.00,,,0.00,Weather View 32 v70,2013-01-19 03:09:00,
2013-01-18 22:14:00,9.4,7.6,30.19,NW,315,4.0,4.0,92,0.00,,,0.00,Weather View 32 v70,2013-01-19 03:14:00,
2013-01-18 22:19:00,10.4,8.3,30.18,NNW,337,2.0,4.0,91,0.00,,,0.00,Weather View 32 v70,2013-01-19 03:19:00,
2013-01-18 22:24:00,11.1,9.5,30.17,NNW,337,1.0,6.0,93,0.00,,,0.00,Weather View 32 v70,2013-01-19 03:24:00,
2013-01-18 22:29:00,11.1,9.5,30.17,WNW,292,2.0,6.0,93,0.00,,,0.00,Weather View 32 v70,2013-01-19 03:29:00,
2013-01-18 22:34:00,11.2,9.6,30.17,NNW,337,1.0,6.0,93,0.00,,,0.00,Weather View 32 v70,2013-01-19 03:34:00,
2013-01-18 22:39:00,11.2,9.6,30.17,NNW,337,2.0,6.0,93,0.00,,,0.00,Weather View 32 v70,2013-01-19 03:39:00,
2013-01-18 22:44:00,11.3,9.7,30.17,WSW,247,2.0,6.0,93,0.00,,,0.00,Weather View 32 v70,2013-01-19 03:44:00,
2013-01-18 22:49:00,11.4,9.8,30.16,NW,315,2.0,6.0,93,0.00,,,0.00,Weather View 32 v70,2013-01-19 03:49:00,
2013-01-18 22:54:00,11.6,10.0,30.17,NW,315,0.0,6.0,93,0.00,,,0.00,Weather View 32 v70,2013-01-19 03:54:00,
2013-01-18 22:59:00,11.8,10.2,30.17,WNW,292,0.0,6.0,93,0.00,,,0.00,Weather View 32 v70,2013-01-19 03:59:00,
2013-01-18 23:04:00,11.9,10.3,30.17,NE,45,1.0,6.0,93,0.00,,,0.00,Weather View 32 v70,2013-01-19 04:04:00,
2013-01-18 23:09:00,12.3,10.7,30.16,North,360,1.0,6.0,93,0.00,,,0.00,Weather View 32 v70,2013-01-19 04:09:00,
2013-01-18 23:14:00,13.1,11.5,30.15,NW,315,3.0,6.0,93,0.00,,,0.00,Weather View 32 v70,2013-01-19 04:14:00,
2013-01-18 23:20:00,13.6,10.2,30.15,NNW,337,2.0,6.0,86,0.00,,,0.00,Weather View 32 v70,2013-01-19 04:20:00,
2013-01-18 23:25:00,14.2,8.9,30.14,NNW,337,2.0,6.0,79,0.00,,,0.00,Weather View 32 v70,2013-01-19 04:25:00,
2013-01-18 23:30:00,14.6,9.6,30.15,North,360,3.0,6.0,80,0.00,,,0.00,Weather View 32 v70,2013-01-19 04:30:00,
2013-01-18 23:35:00,14.8,10.3,30.15,NNW,337,3.0,6.0,82,0.00,,,0.00,Weather View 32 v70,2013-01-19 04:35:00,
2013-01-18 23:40:00,15.1,12.2,30.14,NNW,337,4.0,6.0,88,0.00,,,0.00,Weather View 32 v70,2013-01-19 04:40:00,
2013-01-18 23:45:00,15.3,13.6,30.15,NNW,337,0.0,6.0,93,0.00,,,0.00,Weather View 32 v70,2013-01-19 04:45:00,
2013-01-18 23:50:00,15.4,8.9,30.15,NNW,337,2.0,6.0,75,0.00,,,0.00,Weather View 32 v70,2013-01-19 04:50:00,
2013-01-18 23:55:00,15.5,11.8,30.15,SSW,202,5.0,6.0,85,0.00,,,0.00,Weather View 32 v70,2013-01-19 04:55:00,